Location: Newark
(33.6439°N, 114.9881°W)
Time: 12:20:15
(UTC+00:00)

N. Korean satellite - Pass Details

Date: 29 March 2019
Orbit: 458 x 508 km, 97.2° (Epoch: 25 April)

Event Time Altitude Azimuth Distance (km) Brightness Sun altitude
Rises 12:47:07 0° 35° (NE) 2,559 11.0 -10.0°
Reaches altitude 10° 12:50:04 10° 63° (ENE) 1,685 10.7 -9.4°
Maximum altitude 12:51:57 14° 94° (E) 1,477 10.4 -9.0°
Drops below altitude 10° 12:53:50 10° 125° (SE) 1,692 10.0 -8.7°
Sets 12:56:48 0° 153° (SSE) 2,579 10.5 -8.1°
